Flag for Benin Weather past 2 weeks in Porto Novo, Benin

Now
77 °F

Thunderstorms. Broken clouds.


Feels Like: 78 °F
Forecast: 80 / 90 °F
Wind: No wind

Location: Cotonou Airport

Current Time: May 23, 2015 at 2:00:06 PM

Latest Report: May 23, 2015 at 1:00 PM


Visibility: 5 mi

Pressure: 29.89 "Hg

Humidity: 89%

Dew point: 73 °F

Location of Porto NovoLocation

Historic Weather in Porto Novo — Graph

°F

Porto Novo temperature yesterday

Maximum temperature yesterday: 91 °F (at 1:00 PM)
Minimum temperature yesterday: 82 °F (at 2:00 AM)
Average temperature yesterday: 85 °F

Past Weeks' High & Low Weather Summary

 TemperatureHumidityPressure
High91 °F (May 8, 12:00 PM)94% (May 14, 2:00 PM)29.98 "Hg (May 14, 2:00 PM)
Low75 °F (May 13, 11:00 PM)59% (May 15, 1:00 PM)29.74 "Hg (May 13, 5:00 PM)
Average85 °F78%29.84 "Hg
* Reported May 8 12:00 Noon — May 23 12:00 Noon, Porto Novo, Weather by CustomWeather, © 2015

Note: Actual official high and low records may vary slightly from our data, if they occured in-between our weather recording intervals... More about our weather records

Advertising

Porto Novo weather history for previous 24 hours

 ConditionsComfort  
Time TempWeatherWind HumidityBarometerVisibility
12:00 PM
Sat, May 23
75 °FThunderstorms. Broken clouds.5 mph89%29.92 "Hg5 mi
11:00 AM75 °FThunderstorms. Broken clouds.7 mph89%29.95 "Hg4 mi
10:00 AM75 °FStrong thunderstorms. Broken clouds.7 mph89%29.98 "Hg1 mi
9:00 AM82 °FThunderstorms. Broken clouds.9 mph89%29.89 "Hg5 mi
8:00 AM84 °FThunderstorms. Broken clouds.13 mph79%29.89 "Hg5 mi
7:00 AM84 °FThunderstorms. Broken clouds.14 mph84%29.86 "HgN/A
6:00 AM84 °FThunderstorms. Passing clouds.12 mph79%29.86 "HgN/A
5:00 AM84 °FThunderstorms. Passing clouds.10 mph79%29.83 "HgN/A
4:00 AM84 °FThunderstorms. Passing clouds.12 mph79%29.86 "HgN/A
3:00 AM84 °FPassing clouds.13 mph79%29.86 "HgN/A
2:00 AM84 °FPassing clouds.15 mph79%29.86 "HgN/A
1:00 AM84 °FPassing clouds.13 mph84%29.86 "HgN/A
12:00 AM84 °FPassing clouds.14 mph84%29.86 "HgN/A
11:00 PM
Fri, May 22
84 °FThunderstorms. Passing clouds.16 mph84%29.89 "HgN/A
10:00 PM86 °FThunderstorms. Passing clouds.14 mph79%29.89 "HgN/A
9:00 PM84 °FPassing clouds.13 mph79%29.86 "HgN/A
8:00 PM84 °FPassing clouds.14 mph84%29.86 "HgN/A
7:00 PM86 °FPassing clouds.15 mph79%29.83 "HgN/A
6:00 PM86 °FScattered clouds.15 mph79%29.83 "HgN/A
5:00 PM88 °FScattered clouds.14 mph75%29.83 "HgN/A
4:00 PM88 °FScattered clouds.14 mph75%29.83 "HgN/A
3:00 PM88 °FScattered clouds.13 mph75%29.83 "HgN/A
2:00 PM90 °FScattered clouds.14 mph71%29.83 "HgN/A
Weather by CustomWeather, © 2015

See weather overviewHow to use our weather pages